Weather History for Orange, VA

Change the Weather History Date:

Wednesday, May 9, 2012

  Actual Average Record
Temperature  
Mean Temperature 64 °F -  
Max Temperature 73 °F 72 °F 90 °F (1964)
Min Temperature 55 °F 48 °F 32 °F (1956)
Degree Days  
Heating Degree Days 1    
Growing Degree Days 14 (Base 50)    
Moisture  
Dew Point 63 °F    
Average Humidity 92    
Maximum Humidity 100    
Minimum Humidity 61    
Precipitation  
Precipitation 0.44 in - - ()
Sea Level Pressure  
Sea Level Pressure 29.78 in    
Wind  
Wind Speed 4 mph (WSW)    
Max Wind Speed 9 mph    
Max Gust Speed 18 mph    
Visibility 9 miles    
Events Rain    
Averages and records for this station are not official NWS values.
T = Trace of Precipitation, MM = Missing Value Source: NWS Daily Summary

Daily Weather History Graph

Daily Weather History Graph

Search for Another Location

Airport:

Trip Planner

Search our weather history database for the weather conditions in past years. The results will help you decide how hot, cold, wet, or windy it might be!

Date:

Astronomy

May. 09, 2012 Rise Set
Actual Time 6:06 AM EDT 8:11 PM EDT
Civil Twilight 5:37 AM EDT 8:40 PM EDT
Nautical Twilight 5:01 AM EDT 9:16 PM EDT
Astronomical Twilight 4:23 AM EDT 9:55 PM EDT
Moon No Moon Rise 9:20 AM EDT (5/9)
Length of Visible Light 15h 03m
Length of Day
14h 05m
Waning Gibbous, 83% of the Moon is Illuminated
May 9
Waning Gibbous
May 12
Last Quarter
May 20
New
May 28
First Quarter
Jun 4
Full

Hourly Weather History & Observations

Time (EDT) Temp. Dew Point Humidity Pressure Visibility Wind Dir Wind Speed Gust Speed Precip Events Conditions
12:15 AM 66.2 °F 66.2 °F 100% 29.86 in 5.0 mi SSE 5.8 mph - 0.08 in Rain Rain
12:35 AM 64.4 °F 64.4 °F 100% 29.86 in 5.0 mi Calm Calm - 0.12 in Rain Rain
12:55 AM 64.4 °F 64.4 °F 100% 29.85 in 7.0 mi SE 4.6 mph - 0.14 in Rain Light Rain
1:15 AM 64.4 °F 64.4 °F 100% 29.85 in 10.0 mi Calm Calm - N/A   Overcast
1:35 AM 64.4 °F 64.4 °F 100% 29.85 in 10.0 mi Calm Calm - N/A   Overcast
1:55 AM 64.4 °F 64.4 °F 100% 29.84 in 7.0 mi SSE 4.6 mph - N/A   Overcast
2:15 AM 64.4 °F 64.4 °F 100% 29.83 in 10.0 mi South 4.6 mph - N/A   Overcast
2:35 AM 66.2 °F 66.2 °F 100% 29.82 in 7.0 mi SSE 5.8 mph - N/A   Overcast
2:55 AM 66.2 °F 66.2 °F 100% 29.82 in 7.0 mi SSE 3.5 mph - N/A   Overcast
3:15 AM 66.2 °F 66.2 °F 100% 29.81 in 7.0 mi SSE 3.5 mph - N/A   Overcast
3:35 AM 66.2 °F 66.2 °F 100% 29.81 in 7.0 mi SSE 5.8 mph - N/A   Overcast
3:55 AM 66.2 °F 66.2 °F 100% 29.81 in 7.0 mi SSE 5.8 mph - N/A   Overcast
4:15 AM 66.2 °F 66.2 °F 100% 29.80 in 7.0 mi SSE 4.6 mph - N/A   Overcast
4:35 AM 66.2 °F 66.2 °F 100% 29.80 in 7.0 mi SSE 5.8 mph - N/A   Overcast
4:55 AM 66.2 °F 66.2 °F 100% 29.80 in 7.0 mi South 6.9 mph - N/A   Overcast
5:15 AM 66.2 °F 66.2 °F 100% 29.81 in 7.0 mi South 9.2 mph - N/A   Overcast
5:35 AM 66.2 °F 66.2 °F 100% 29.81 in 7.0 mi South 8.1 mph - N/A   Overcast
5:55 AM 66.2 °F 66.2 °F 100% 29.80 in 7.0 mi South 6.9 mph - N/A   Overcast
6:15 AM 66.2 °F 66.2 °F 100% 29.81 in 7.0 mi South 5.8 mph - N/A   Overcast
6:35 AM 66.2 °F 66.2 °F 100% 29.82 in 7.0 mi SSW 5.8 mph - N/A   Overcast
6:55 AM 66.2 °F 66.2 °F 100% 29.81 in 7.0 mi SSW 3.5 mph - N/A   Overcast
7:15 AM 66.2 °F 66.2 °F 100% 29.81 in 7.0 mi Calm Calm - N/A   Overcast
7:35 AM 68.0 °F 68.0 °F 100% 29.81 in 7.0 mi Calm Calm - N/A   Overcast
7:55 AM 68.0 °F 68.0 °F 100% 29.81 in 7.0 mi SSW 3.5 mph - N/A   Overcast
8:15 AM 68.0 °F 68.0 °F 100% 29.82 in 10.0 mi Calm Calm - N/A   Overcast
8:35 AM 68.0 °F 68.0 °F 100% 29.82 in 10.0 mi SSE 3.5 mph - N/A   Overcast
8:55 AM 68.0 °F 68.0 °F 100% 29.82 in 10.0 mi Calm Calm - N/A   Overcast
9:15 AM 69.8 °F 69.8 °F 100% 29.82 in 10.0 mi SW 4.6 mph - N/A   Overcast
9:35 AM 69.8 °F 68.0 °F 94% 29.82 in 10.0 mi WSW 3.5 mph - N/A   Overcast
9:55 AM 69.8 °F 69.8 °F 100% 29.83 in 10.0 mi WSW 4.6 mph - N/A   Overcast
10:15 AM 69.8 °F 68.0 °F 94% 29.82 in 10.0 mi Calm Calm - N/A   Mostly Cloudy
10:35 AM 69.8 °F 68.0 °F 94% 29.82 in 10.0 mi WNW 5.8 mph - N/A   Overcast
10:55 AM 71.6 °F 66.2 °F 83% 29.82 in 10.0 mi NNW 6.9 mph - N/A   Scattered Clouds
11:15 AM 71.6 °F 66.2 °F 83% 29.81 in 10.0 mi North 3.5 mph - N/A   Scattered Clouds
11:35 AM 71.6 °F 64.4 °F 78% 29.81 in 10.0 mi NW 5.8 mph - N/A   Mostly Cloudy
11:55 AM 71.6 °F 66.2 °F 83% 29.81 in 10.0 mi NNW 4.6 mph - N/A   Mostly Cloudy
12:15 PM 71.6 °F 64.4 °F 78% 29.80 in 10.0 mi Calm Calm - N/A   Scattered Clouds
12:35 PM 73.4 °F 64.4 °F 73% 29.79 in 10.0 mi NW 4.6 mph - N/A   Mostly Cloudy
12:55 PM 73.4 °F 64.4 °F 73% 29.78 in 10.0 mi NNE 4.6 mph - N/A   Scattered Clouds
1:15 PM 71.6 °F 62.6 °F 73% 29.78 in 10.0 mi NW 4.6 mph - N/A   Scattered Clouds
1:35 PM 71.6 °F 60.8 °F 69% 29.77 in 10.0 mi North 3.5 mph - N/A   Scattered Clouds
1:55 PM 73.4 °F 60.8 °F 65% 29.77 in 10.0 mi NNW 3.5 mph - N/A   Scattered Clouds
2:15 PM 73.4 °F 62.6 °F 69% 29.75 in 10.0 mi North 3.5 mph - N/A   Scattered Clouds
2:35 PM 73.4 °F 60.8 °F 65% 29.75 in 10.0 mi NNW 4.6 mph - N/A   Clear
2:55 PM 73.4 °F 59.0 °F 61% 29.75 in 10.0 mi Calm Calm - N/A   Scattered Clouds
3:15 PM 73.4 °F 60.8 °F 65% 29.74 in 10.0 mi Calm Calm - N/A   Overcast
3:35 PM 73.4 °F 60.8 °F 65% 29.73 in 10.0 mi North 3.5 mph - N/A   Overcast
3:55 PM 73.4 °F 60.8 °F 65% 29.72 in 10.0 mi Calm Calm - N/A   Overcast
4:15 PM 73.4 °F 60.8 °F 65% 29.72 in 10.0 mi Calm Calm - N/A   Overcast
4:35 PM 71.6 °F 62.6 °F 73% 29.71 in 10.0 mi Calm Calm - N/A   Overcast
4:55 PM 68.0 °F 62.6 °F 83% 29.73 in 7.0 mi WSW 4.6 mph - 0.02 in Rain Rain
5:15 PM 64.4 °F 62.6 °F 94% 29.74 in 5.0 mi West 5.8 mph - 0.06 in Rain Rain
5:55 PM 62.6 °F 62.6 °F 100% 29.72 in 10.0 mi Calm Calm - 0.13 in   Drizzle
6:15 PM 64.4 °F 64.4 °F 100% 29.72 in 10.0 mi Calm Calm - N/A Rain Rain
6:35 PM 64.4 °F 64.4 °F 100% 29.72 in 7.0 mi SW 4.6 mph - N/A Rain Light Rain
6:55 PM 62.6 °F 62.6 °F 100% 29.72 in 7.0 mi WSW 6.9 mph - 0.02 in Rain Light Rain
7:15 PM 60.8 °F 57.2 °F 88% 29.73 in 10.0 mi NW 8.1 mph 18.4 mph 0.01 in Rain Rain
7:35 PM 59.0 °F 57.2 °F 94% 29.73 in 10.0 mi NW 3.5 mph - 0.03 in Rain Rain
7:55 PM 59.0 °F 57.2 °F 94% 29.73 in 10.0 mi NNE 3.5 mph - 0.04 in Rain Light Rain
8:15 PM 59.0 °F 59.0 °F 100% 29.73 in 7.0 mi Calm Calm - 0.01 in Rain Light Rain
8:35 PM 57.2 °F 57.2 °F 100% 29.73 in 5.0 mi North 3.5 mph - 0.05 in Rain Heavy Rain
8:55 PM 57.2 °F 57.2 °F 100% 29.73 in 10.0 mi North 6.9 mph - 0.08 in Rain Light Rain
9:15 PM 57.2 °F 57.2 °F 100% 29.73 in 10.0 mi Calm Calm - N/A   Light Drizzle
9:35 PM 57.2 °F 57.2 °F 100% 29.73 in 10.0 mi NNE 3.5 mph - N/A Rain Light Rain
9:55 PM 57.2 °F 57.2 °F 100% 29.73 in 10.0 mi Calm Calm - N/A   Overcast
10:15 PM 57.2 °F 57.2 °F 100% 29.73 in 10.0 mi WNW 3.5 mph - N/A   Overcast
10:35 PM 57.2 °F 57.2 °F 100% 29.72 in 10.0 mi Calm Calm - N/A   Overcast
10:55 PM 57.2 °F 57.2 °F 100% 29.72 in 10.0 mi Calm Calm - 0.01 in   Overcast
11:15 PM 55.4 °F 55.4 °F 100% 29.72 in 10.0 mi Calm Calm - N/A   Overcast
11:35 PM 55.4 °F 55.4 °F 100% 29.71 in 7.0 mi Calm Calm - N/A   Mostly Cloudy
11:55 PM 55.4 °F 55.4 °F 100% 29.71 in 7.0 mi Calm Calm - N/A   Scattered Clouds